When you browse on this site, cookies collect data to enhance your experience and personalize the content and advertising you see.
Visit our Privacy Policy to learn more. By continuing to use the site, you agree to this use of cookies and data.
  • In Hungary
  • List of Countries
  • For 7 days
  • Water Temperature
  • Satellite Maps
  • Weather Map
  • News
  • Weather Widgets
  • user-avatar
    Login

    Hourly Weather Starnberg

    Today, 17 February, Sunday

    Time Temperature Precipitation Wind Pressure Humidity
    00:00 +2°C° 0 mm 2 mps 718 mmHg 71%
    01:00 +1°C° 0 mm 2 mps 718 mmHg 68%
    02:00 +1°C° 0 mm 2 mps 718 mmHg 67%
    03:00 +1°C° 0 mm 2 mps 717 mmHg 66%
    04:00 +1°C° 0 mm 2 mps 717 mmHg 66%
    05:00 -1°C° 0 mm 2 mps 717 mmHg 65%
    06:00 -1°C° 0 mm 2 mps 717 mmHg 65%
    07:00 -1°C° 0 mm 2 mps 717 mmHg 65%
    08:00 +3°C° 0 mm 1 mps 717 mmHg 66%
    09:00 +5°C° 0 mm 1 mps 717 mmHg 66%
    10:00 +7°C° 0 mm 1 mps 717 mmHg 67%
    11:00 +9°C° 0 mm 1 mps 717 mmHg 65%
    12:00 +10°C° 0 mm 0 mps 716 mmHg 63%
    13:00 +11°C° 0 mm 0 mps 716 mmHg 61%
    14:00 +11°C° 0 mm 0 mps 716 mmHg 65%
    15:00 +10°C° 0 mm 0 mps 716 mmHg 69%
    16:00 +10°C° 0 mm 0 mps 715 mmHg 73%
    17:00 +9°C° 0 mm 1 mps 715 mmHg 76%
    18:00 +7°C° 0 mm 1 mps 715 mmHg 79%
    19:00 +5°C° 0 mm 1 mps 715 mmHg 81%
    20:00 +5°C° 0 mm 1 mps 715 mmHg 81%
    21:00 +4°C° 0 mm 1 mps 715 mmHg 80%
    22:00 +3°C° 0 mm 1 mps 715 mmHg 79%
    23:00 +3°C° 0 mm 1 mps 715 mmHg 77%

    Tomorrow, 18 February, Monday

    Time Temperature Precipitation Wind Pressure Humidity
    00:00 +2°C° 0 mm 1 mps 715 mmHg 74%
    01:00 +2°C° 0 mm 1 mps 715 mmHg 72%
    02:00 +2°C° 0 mm 1 mps 715 mmHg 71%
    03:00 +1°C° 0 mm 1 mps 715 mmHg 70%
    04:00 +1°C° 0 mm 1 mps 714 mmHg 68%
    05:00 +1°C° 0 mm 1 mps 714 mmHg 68%
    06:00 +1°C° 0 mm 1 mps 714 mmHg 68%
    07:00 +1°C° 0 mm 1 mps 714 mmHg 68%
    08:00 +2°C° 0 mm 1 mps 714 mmHg 66%
    09:00 +4°C° 0 mm 1 mps 714 mmHg 64%
    10:00 +6°C° 0 mm 1 mps 714 mmHg 62%
    11:00 +7°C° 0 mm 0 mps 714 mmHg 59%
    12:00 +8°C° 0 mm 0 mps 713 mmHg 57%
    13:00 +10°C° 0 mm 0 mps 713 mmHg 54%
    14:00 +9°C° 0 mm 0 mps 713 mmHg 57%
    15:00 +9°C° 0 mm 0 mps 713 mmHg 61%
    16:00 +9°C° 0 mm 0 mps 712 mmHg 64%
    17:00 +7°C° 0 mm 0 mps 712 mmHg 68%
    18:00 +6°C° 0 mm 1 mps 713 mmHg 72%
    19:00 +4°C° 0 mm 1 mps 713 mmHg 76%
    20:00 +4°C° 0 mm 1 mps 713 mmHg 79%
    21:00 +3°C° 0 mm 1 mps 713 mmHg 81%
    22:00 +2°C° 0 mm 2 mps 713 mmHg 84%
    23:00 +2°C° 0 mm 2 mps 713 mmHg 83%

    Day after tomorrow, 19 February, Tuesday

    Time Temperature Precipitation Wind Pressure Humidity
    00:00 +2°C° 0 mm 2 mps 713 mmHg 82%
    01:00 +2°C° 0 mm 2 mps 713 mmHg 81%
    02:00 +1°C° 0 mm 2 mps 713 mmHg 81%
    03:00 +1°C° 0 mm 2 mps 713 mmHg 80%
    04:00 +1°C° 0 mm 2 mps 713 mmHg 80%
    05:00 +1°C° 0 mm 2 mps 713 mmHg 80%
    06:00 +1°C° 0 mm 2 mps 713 mmHg 79%
    07:00 +1°C° 0 mm 2 mps 714 mmHg 79%
    08:00 +3°C° 0 mm 2 mps 714 mmHg 75%
    09:00 +5°C° 0 mm 2 mps 714 mmHg 70%
    10:00 +6°C° 0 mm 2 mps 714 mmHg 66%
    11:00 +8°C° 0 mm 2 mps 714 mmHg 63%
    12:00 +9°C° 0 mm 2 mps 714 mmHg 60%
    13:00 +10°C° 0 mm 3 mps 714 mmHg 57%
    14:00 +10°C° 0 mm 2 mps 714 mmHg 60%
    15:00 +10°C° 0 mm 2 mps 713 mmHg 63%
    16:00 +9°C° 0 mm 2 mps 713 mmHg 67%
    17:00 +8°C° 0 mm 2 mps 714 mmHg 71%
    18:00 +6°C° 0 mm 2 mps 714 mmHg 76%
    19:00 +4°C° 0 mm 2 mps 714 mmHg 81%
    20:00 +4°C° 0 mm 2 mps 714 mmHg 81%
    21:00 +3°C° 0 mm 2 mps 715 mmHg 81%
    22:00 +2°C° 0 mm 2 mps 715 mmHg 81%
    23:00 +2°C° 0 mm 2 mps 715 mmHg 81%

    20 February, Wednesday

    Time Temperature Precipitation Wind Pressure Humidity
    00:00 +2°C° 0 mm 2 mps 715 mmHg 80%
    01:00 +2°C° 0 mm 2 mps 715 mmHg 79%
    02:00 +1°C° 0 mm 2 mps 715 mmHg 79%
    03:00 +1°C° 0 mm 2 mps 715 mmHg 78%
    04:00 +1°C° 0 mm 2 mps 715 mmHg 78%
    05:00 +1°C° 0 mm 2 mps 715 mmHg 77%
    06:00 +1°C° 0 mm 2 mps 715 mmHg 76%
    07:00 +2°C° 0 mm 1 mps 715 mmHg 75%
    08:00 +3°C° 0 mm 1 mps 716 mmHg 71%
    09:00 +5°C° 0 mm 1 mps 716 mmHg 67%
    10:00 +7°C° 0 mm 1 mps 716 mmHg 63%
    11:00 +8°C° 0 mm 1 mps 716 mmHg 61%
    12:00 +9°C° 0 mm 1 mps 716 mmHg 59%
    13:00 +10°C° 0 mm 1 mps 716 mmHg 58%
    14:00 +10°C° 0 mm 1 mps 716 mmHg 60%
    15:00 +10°C° 0 mm 1 mps 716 mmHg 63%
    16:00 +10°C° 0 mm 1 mps 716 mmHg 66%
    17:00 +9°C° 0 mm 1 mps 716 mmHg 71%
    18:00 +6°C° 0 mm 0 mps 717 mmHg 76%
    19:00 +5°C° 0 mm 0 mps 717 mmHg 81%
    20:00 +5°C° 0 mm 1 mps 717 mmHg 82%
    21:00 +5°C° 0 mm 1 mps 718 mmHg 84%
    22:00 +4°C° 0 mm 1 mps 718 mmHg 85%
    23:00 +4°C° 0 mm 1 mps 718 mmHg 84%

    21 February, Thursday

    Time Temperature Precipitation Wind Pressure Humidity
    00:00 +3°C° 0 mm 1 mps 718 mmHg 83%
    01:00 +3°C° 0 mm 1 mps 718 mmHg 83%
    02:00 +3°C° 0 mm 1 mps 718 mmHg 82%
    03:00 +3°C° 0 mm 1 mps 718 mmHg 81%
    04:00 +2°C° 0 mm 1 mps 718 mmHg 80%
    05:00 +2°C° 0 mm 1 mps 718 mmHg 79%
    06:00 +2°C° 0 mm 1 mps 718 mmHg 79%
    07:00 +2°C° 0 mm 1 mps 718 mmHg 79%
    08:00 +4°C° 0 mm 1 mps 718 mmHg 74%
    09:00 +5°C° 0 mm 1 mps 719 mmHg 70%
    10:00 +7°C° 0 mm 1 mps 719 mmHg 65%
    11:00 +7°C° 0 mm 2 mps 719 mmHg 63%
    12:00 +8°C° 0 mm 2 mps 719 mmHg 61%
    13:00 +10°C° 0 mm 2 mps 719 mmHg 60%
    14:00 +10°C° 0 mm 2 mps 719 mmHg 61%
    15:00 +10°C° 0 mm 2 mps 718 mmHg 63%
    16:00 +10°C° 0 mm 2 mps 718 mmHg 65%
    17:00 +9°C° 0 mm 1 mps 719 mmHg 71%
    18:00 +8°C° 0 mm 1 mps 719 mmHg 76%
    19:00 +7°C° 0 mm 1 mps 719 mmHg 82%
    20:00 +6°C° 0 mm 1 mps 720 mmHg 85%
    21:00 +4°C° 0 mm 2 mps 720 mmHg 87%
    22:00 +4°C° 0 mm 2 mps 720 mmHg 89%
    23:00 +3°C° 0 mm 2 mps 720 mmHg 89%

    22 February, Friday

    Time Temperature Precipitation Wind Pressure Humidity
    00:00 +3°C° 0 mm 2 mps 720 mmHg 88%
    01:00 +3°C° 0 mm 2 mps 720 mmHg 88%
    02:00 +3°C° 0 mm 2 mps 720 mmHg 87%
    03:00 +2°C° 0 mm 2 mps 720 mmHg 86%
    04:00 +2°C° 0 mm 2 mps 720 mmHg 86%
    05:00 +3°C° 0 mm 2 mps 720 mmHg 85%
    06:00 +3°C° 0 mm 2 mps 721 mmHg 84%
    07:00 +3°C° 0 mm 2 mps 721 mmHg 83%
    08:00 +4°C° 0 mm 2 mps 721 mmHg 81%
    09:00 +5°C° 0 mm 2 mps 721 mmHg 78%
    10:00 +6°C° 0 mm 2 mps 721 mmHg 76%
    11:00 +7°C° 0 mm 2 mps 721 mmHg 77%
    12:00 +7°C° 0 mm 2 mps 720 mmHg 78%
    13:00 +8°C° 0 mm 2 mps 720 mmHg 79%
    14:00 +8°C° 0.1 mm 2 mps 720 mmHg 80%
    15:00 +8°C° 0.1 mm 2 mps 720 mmHg 81%
    16:00 +8°C° 0.1 mm 2 mps 720 mmHg 83%
    17:00 +8°C° 0.1 mm 1 mps 720 mmHg 86%
    18:00 +8°C° 0.1 mm 1 mps 721 mmHg 89%
    19:00 +7°C° 0.1 mm 1 mps 721 mmHg 92%
    20:00 +7°C° 0.1 mm 1 mps 721 mmHg 92%
    21:00 +6°C° 0.1 mm 1 mps 721 mmHg 92%
    22:00 +6°C° 0.1 mm 1 mps 722 mmHg 93%
    23:00 +5°C° 0 mm 1 mps 722 mmHg 93%
    Show more